CW7779 Weather Reports


Display with metric or nautical units.
time (UTC)temp
F
wind
direction
speed
MPH
gust
MPH
rain 1hr
in
rain 24hr
in
rain mn
in
humidity
%
barometer
mb
20260506113001 70 208 3.0 8.0 0.00 0.00 0.00 81 1016.3
20260506111501 69 209 3.0 7.0 0.00 0.00 0.00 80 1016.3
20260506110105 69 193 3.0 9.0 0.00 0.00 0.00 80 1016.2
20260506104559 69 205 3.0 7.0 0.00 0.00 0.00 80 1016.1
20260506103058 69 207 3.0 7.0 0.00 0.00 0.00 80 1015.9
20260506101558 69 226 1.0 7.0 0.00 0.00 0.00 79 1015.8
20260506100056 69 224 5.0 9.0 0.00 0.00 0.00 79 1015.9
20260506094621 68 194 2.0 9.0 0.00 0.00 0.00 80 1015.9
20260506093055 68 206 4.0 9.0 0.00 0.00 0.00 79 1016.1
20260506091555 68 211 3.0 9.0 0.00 0.00 0.00 80 1015.8
20260506090054 69 184 2.0 6.0 0.00 0.00 0.00 78 1015.6
20260506084553 69 145 2.0 9.0 0.00 0.00 0.00 78 1015.9
20260506083053 68 176 2.0 10.0 0.00 0.00 0.00 78 1015.9
20260506081555 68 185 4.0 8.0 0.00 0.00 0.00 79 1015.7
20260506073049 68 220 4.0 8.0 0.00 0.00 0.00 80 1016.0
20260506071549 67 203 3.0 7.0 0.00 0.00 0.00 81 1016.2
20260506061545 67 220 2.0 5.0 0.00 0.00 0.00 79 1016.3
20260506044536 68 203 1.0 7.0 0.00 0.00 0.00 72 1017.3
20260506043035 68 138 3.0 8.0 0.00 0.00 0.00 72 1017.5
20260506041533 68 207 3.0 11.0 0.00 0.00 0.00 71 1017.7
20260506040032 68 358 4.0 9.0 0.00 0.00 0.00 72 1017.7
20260506034534 67 196 3.0 7.0 0.00 0.00 0.00 74 1017.7
20260506033031 68 202 2.0 7.0 0.00 0.00 0.00 74 1017.7
20260506031531 68 239 2.0 7.0 0.00 0.00 0.00 73 1017.7
20260506030035 68 236 0.0 10.0 0.00 0.00 0.00 74 1017.7
20260506024542 68 223 1.0 7.0 0.00 0.00 0.00 74 1017.7
20260506023031 68 211 2.0 7.0 0.00 0.00 0.00 74 1017.7
20260506021529 68 210 2.0 6.0 0.00 0.00 0.00 73 1017.7
20260506020029 68 176 4.0 8.0 0.00 0.00 0.00 73 1017.7
20260506014529 68 196 3.0 10.0 0.00 0.00 0.00 72 1017.7
20260506013028 68 214 4.0 9.0 0.00 0.00 0.00 73 1017.7
20260506011526 68 221 3.0 7.0 0.00 0.00 0.00 74 1017.7
20260506010032 68 198 3.0 8.0 0.00 0.00 0.00 74 1017.6
20260506004524 68 199 3.0 7.0 0.00 0.00 0.00 74 1017.4
20260506003024 69 207 3.0 8.0 0.00 0.00 0.00 73 1017.3
20260506001532 69 228 3.0 7.0 0.00 0.00 0.00 71 1017.3
20260506000022 70 213 2.0 9.0 0.00 0.00 0.00 69 1017.4
20260505234528 70 221 3.0 8.0 0.00 0.00 0.00 68 1017.3
20260505233022 71 186 2.0 11.0 0.00 0.00 0.00 67 1017.6
20260505231522 71 234 3.0 9.0 0.00 0.00 0.00 66 1017.6
20260505230043 72 220 4.0 11.0 0.00 0.00 0.00 67 1017.6
20260505224521 72 173 5.0 12.0 0.00 0.00 0.00 65 1017.7
20260505223020 72 217 6.0 12.0 0.00 0.00 0.00 65 1017.6
20260505221520 73 203 7.0 15.0 0.00 0.00 0.00 64 1017.6
20260505220029 73 229 6.0 16.0 0.00 0.00 0.00 64 1017.7
20260505214519 74 205 5.0 16.0 0.00 0.00 0.00 63 1017.3
20260505213022 73 198 7.0 14.0 0.00 0.00 0.00 62 1017.3
20260505211518 74 161 6.0 12.0 0.00 0.00 0.00 61 1017.2
20260505210017 74 185 6.0 12.0 0.00 0.00 0.00 62 1017.5
20260505204516 74 214 7.0 14.0 0.00 0.00 0.00 61 1017.7
20260505203019 74 182 7.0 16.0 0.00 0.00 0.00 61 1017.7
20260505201516 73 236 8.0 14.0 0.00 0.00 0.00 62 1017.9
20260505200015 74 256 7.0 15.0 0.00 0.00 0.00 62 1018.0
20260505194515 74 222 8.0 18.0 0.00 0.00 0.00 60 1018.2
20260505193014 75 226 6.0 14.0 0.00 0.00 0.00 60 1018.4
20260505191515 76 180 4.0 12.0 0.00 0.00 0.00 61 1018.8
20260505190013 77 176 3.0 9.0 0.00 0.00 0.00 61 1018.8
20260505184512 77 134 4.0 9.0 0.00 0.00 0.00 58 1018.8
20260505183012 76 200 3.0 10.0 0.00 0.00 0.00 58 1018.7
20260505181511 76 153 3.0 11.0 0.00 0.00 0.00 56 1018.7
20260505180025 76 219 4.0 16.0 0.00 0.00 0.00 57 1018.7
20260505174509 77 267 5.0 14.0 0.00 0.00 0.00 54 1018.8
20260505173008 76 237 5.0 12.0 0.00 0.00 0.00 56 1018.8
20260505171507 76 205 5.0 12.0 0.00 0.00 0.00 56 1018.8
20260505170005 75 208 4.0 13.0 0.00 0.00 0.00 57 1018.8
20260505164505 75 205 6.0 11.0 0.00 0.00 0.00 56 1018.8
20260505163005 75 216 4.0 16.0 0.00 0.00 0.00 56 1019.2
20260505161504 75 151 3.0 14.0 0.00 0.00 0.00 56 1019.3
20260505153003 75 217 5.0 11.0 0.00 0.00 0.00 54 1019.3
20260505151558 75 225 3.0 8.0 0.00 0.00 0.00 55 1019.3
20260505124535 68 218 4.0 6.0 0.00 0.00 0.00 74 1018.7
20260505123035 66 205 2.0 6.0 0.00 0.00 0.00 83 1018.8
20260505121531 65 209 1.0 3.0 0.00 0.00 0.00 89 1018.7
20260505120030 63 209 0.0 0.0 0.00 0.00 0.00 90 1018.7
20260505114528 62 209 0.0 0.0 0.00 0.00 0.00 89 1018.4